• In Denmark
  • List of Countries
  • For 7 days
  • Water Temperature
  • Satellite Maps
  • Weather Map
  • Weather Widgets
  • user-avatar
    Login

    Hourly Weather Belbulak

    Today, 23 October, Tuesday

    Time Temperature Precipitation Wind Pressure Humidity
    00:00 +10°C° 0 mm 2 mps 695 mmHg 47%
    01:00 +9°C° 0 mm 2 mps 695 mmHg 48%
    02:00 +9°C° 0 mm 2 mps 695 mmHg 50%
    03:00 +8°C° 0 mm 2 mps 696 mmHg 48%
    04:00 +8°C° 0 mm 2 mps 696 mmHg 49%
    05:00 +8°C° 0 mm 2 mps 696 mmHg 50%
    06:00 +9°C° 0 mm 2 mps 696 mmHg 49%
    07:00 +11°C° 0 mm 1 mps 697 mmHg 49%
    08:00 +12°C° 0 mm 1 mps 698 mmHg 48%
    09:00 +13°C° 0.1 mm 1 mps 698 mmHg 47%
    10:00 +14°C° 0.1 mm 2 mps 697 mmHg 47%
    11:00 +15°C° 0.1 mm 2 mps 697 mmHg 46%
    12:00 +15°C° 0.1 mm 2 mps 697 mmHg 46%
    13:00 +15°C° 0.1 mm 2 mps 697 mmHg 46%
    14:00 +15°C° 0.1 mm 2 mps 697 mmHg 46%
    15:00 +14°C° 0 mm 2 mps 697 mmHg 49%
    16:00 +12°C° 0 mm 2 mps 697 mmHg 53%
    17:00 +10°C° 0 mm 1 mps 697 mmHg 57%
    18:00 +9°C° 0 mm 2 mps 698 mmHg 57%
    19:00 +8°C° 0 mm 2 mps 698 mmHg 56%
    20:00 +8°C° 0 mm 2 mps 698 mmHg 56%
    21:00 +7°C° 0 mm 2 mps 699 mmHg 56%
    22:00 +7°C° 0 mm 2 mps 699 mmHg 55%
    23:00 +7°C° 0 mm 2 mps 699 mmHg 54%

    Tomorrow, 24 October, Wednesday

    Time Temperature Precipitation Wind Pressure Humidity
    00:00 +7°C° 0 mm 2 mps 699 mmHg 54%
    01:00 +7°C° 0 mm 2 mps 698 mmHg 54%
    02:00 +7°C° 0 mm 2 mps 698 mmHg 54%
    03:00 +7°C° 0 mm 2 mps 698 mmHg 53%
    04:00 +7°C° 0 mm 2 mps 698 mmHg 53%
    05:00 +7°C° 0 mm 2 mps 698 mmHg 53%
    06:00 +8°C° 0 mm 2 mps 698 mmHg 51%
    07:00 +9°C° 0 mm 2 mps 698 mmHg 50%
    08:00 +10°C° 0 mm 2 mps 699 mmHg 48%
    09:00 +11°C° 0 mm 3 mps 698 mmHg 46%
    10:00 +13°C° 0 mm 3 mps 698 mmHg 44%
    11:00 +14°C° 0 mm 4 mps 698 mmHg 42%
    12:00 +15°C° 0 mm 4 mps 697 mmHg 43%
    13:00 +15°C° 0 mm 4 mps 697 mmHg 43%
    14:00 +15°C° 0 mm 4 mps 697 mmHg 44%
    15:00 +14°C° 0 mm 4 mps 697 mmHg 47%
    16:00 +12°C° 0 mm 4 mps 696 mmHg 49%
    17:00 +11°C° 0 mm 4 mps 696 mmHg 52%
    18:00 +10°C° 0 mm 4 mps 696 mmHg 48%
    19:00 +10°C° 0 mm 4 mps 697 mmHg 45%
    20:00 +8°C° 0 mm 4 mps 697 mmHg 41%
    21:00 +8°C° 0 mm 4 mps 697 mmHg 40%
    22:00 +8°C° 0 mm 4 mps 697 mmHg 39%
    23:00 +8°C° 0 mm 4 mps 697 mmHg 38%

    Day after tomorrow, 25 October, Thursday

    Time Temperature Precipitation Wind Pressure Humidity
    00:00 +8°C° 0 mm 4 mps 697 mmHg 38%
    01:00 +8°C° 0 mm 4 mps 696 mmHg 38%
    02:00 +9°C° 0 mm 3 mps 696 mmHg 38%
    03:00 +9°C° 0 mm 3 mps 696 mmHg 39%
    04:00 +8°C° 0 mm 3 mps 696 mmHg 39%
    05:00 +8°C° 0 mm 3 mps 696 mmHg 39%
    06:00 +9°C° 0 mm 3 mps 697 mmHg 40%
    07:00 +11°C° 0 mm 3 mps 697 mmHg 40%
    08:00 +12°C° 0 mm 3 mps 697 mmHg 40%
    09:00 +13°C° 0 mm 3 mps 697 mmHg 40%
    10:00 +16°C° 0 mm 3 mps 697 mmHg 40%
    11:00 +17°C° 0 mm 3 mps 696 mmHg 40%
    12:00 +18°C° 0 mm 3 mps 696 mmHg 40%
    13:00 +18°C° 0 mm 3 mps 696 mmHg 39%
    14:00 +18°C° 0 mm 3 mps 696 mmHg 39%
    15:00 +17°C° 0 mm 3 mps 696 mmHg 41%
    16:00 +14°C° 0 mm 3 mps 696 mmHg 42%
    17:00 +13°C° 0 mm 2 mps 696 mmHg 43%
    18:00 +13°C° 0 mm 2 mps 696 mmHg 43%
    19:00 +13°C° 0 mm 2 mps 697 mmHg 42%
    20:00 +12°C° 0 mm 2 mps 697 mmHg 42%
    21:00 +12°C° 0 mm 2 mps 697 mmHg 43%
    22:00 +12°C° 0 mm 2 mps 697 mmHg 43%
    23:00 +12°C° 0 mm 2 mps 697 mmHg 44%

    26 October, Friday

    Time Temperature Precipitation Wind Pressure Humidity
    00:00 +12°C° 0 mm 2 mps 697 mmHg 44%
    01:00 +12°C° 0 mm 2 mps 697 mmHg 45%
    02:00 +11°C° 0 mm 3 mps 697 mmHg 46%
    03:00 +12°C° 0 mm 2 mps 697 mmHg 46%
    04:00 +12°C° 0 mm 2 mps 697 mmHg 47%
    05:00 +12°C° 0 mm 2 mps 697 mmHg 48%
    06:00 +12°C° 0 mm 2 mps 697 mmHg 48%
    07:00 +13°C° 0 mm 2 mps 697 mmHg 48%
    08:00 +13°C° 0 mm 3 mps 698 mmHg 47%
    09:00 +16°C° 0 mm 3 mps 698 mmHg 46%
    10:00 +17°C° 0 mm 3 mps 697 mmHg 44%
    11:00 +18°C° 0 mm 3 mps 697 mmHg 43%
    12:00 +19°C° 0.1 mm 3 mps 697 mmHg 42%
    13:00 +19°C° 0.1 mm 3 mps 697 mmHg 41%
    14:00 +19°C° 0.1 mm 3 mps 696 mmHg 41%
    15:00 +18°C° 0 mm 3 mps 696 mmHg 42%
    16:00 +16°C° 0 mm 3 mps 696 mmHg 44%
    17:00 +14°C° 0 mm 3 mps 696 mmHg 46%
    18:00 +13°C° 0 mm 3 mps 696 mmHg 45%
    19:00 +12°C° 0 mm 3 mps 696 mmHg 45%
    20:00 +12°C° 0 mm 3 mps 696 mmHg 45%
    21:00 +11°C° 0 mm 3 mps 696 mmHg 44%
    22:00 +11°C° 0 mm 3 mps 696 mmHg 43%
    23:00 +11°C° 0 mm 3 mps 696 mmHg 42%

    27 October, Saturday

    Time Temperature Precipitation Wind Pressure Humidity
    00:00 +11°C° 0 mm 3 mps 696 mmHg 42%
    01:00 +11°C° 0 mm 3 mps 696 mmHg 41%
    02:00 +10°C° 0 mm 3 mps 696 mmHg 41%
    03:00 +10°C° 0 mm 3 mps 696 mmHg 41%
    04:00 +10°C° 0 mm 3 mps 696 mmHg 40%
    05:00 +10°C° 0 mm 3 mps 697 mmHg 40%
    06:00 +11°C° 0 mm 3 mps 697 mmHg 40%
    07:00 +12°C° 0 mm 3 mps 697 mmHg 40%
    08:00 +13°C° 0 mm 3 mps 697 mmHg 40%
    09:00 +15°C° 0 mm 4 mps 697 mmHg 40%
    10:00 +18°C° 0 mm 4 mps 697 mmHg 40%
    11:00 +19°C° 0 mm 4 mps 697 mmHg 39%
    12:00 +20°C° 0 mm 4 mps 696 mmHg 39%
    13:00 +20°C° 0 mm 4 mps 696 mmHg 39%
    14:00 +20°C° 0 mm 4 mps 696 mmHg 39%
    15:00 +19°C° 0 mm 4 mps 696 mmHg 40%
    16:00 +17°C° 0 mm 4 mps 696 mmHg 42%
    17:00 +15°C° 0 mm 4 mps 696 mmHg 43%
    18:00 +14°C° 0 mm 4 mps 696 mmHg 42%
    19:00 +14°C° 0 mm 4 mps 696 mmHg 42%
    20:00 +14°C° 0 mm 4 mps 696 mmHg 41%
    21:00 +14°C° 0 mm 4 mps 696 mmHg 41%
    22:00 +14°C° 0 mm 4 mps 696 mmHg 41%
    23:00 +14°C° 0 mm 4 mps 696 mmHg 42%

    28 October, Sunday

    Time Temperature Precipitation Wind Pressure Humidity
    00:00 +14°C° 0.1 mm 3 mps 696 mmHg 43%
    01:00 +16°C° 0.1 mm 3 mps 696 mmHg 45%
    02:00 +16°C° 0.1 mm 3 mps 696 mmHg 47%
    03:00 +16°C° 0.1 mm 3 mps 696 mmHg 48%
    04:00 +14°C° 0.1 mm 3 mps 697 mmHg 49%
    05:00 +15°C° 0.1 mm 2 mps 697 mmHg 50%
    06:00 +16°C° 0.1 mm 3 mps 697 mmHg 50%
    07:00 +16°C° 0.1 mm 3 mps 697 mmHg 51%
    08:00 +16°C° 0.1 mm 3 mps 697 mmHg 51%
    09:00 +17°C° 0.2 mm 3 mps 697 mmHg 50%
    10:00 +18°C° 0.2 mm 3 mps 697 mmHg 50%
    11:00 +18°C° 0.2 mm 2 mps 697 mmHg 50%
    12:00 +17°C° 0.5 mm 3 mps 698 mmHg 58%
    13:00 +15°C° 0.5 mm 4 mps 698 mmHg 67%
    14:00 +14°C° 0.5 mm 5 mps 699 mmHg 75%
    15:00 +13°C° 1.8 mm 5 mps 700 mmHg 80%
    16:00 +12°C° 1.8 mm 4 mps 701 mmHg 84%
    17:00 +10°C° 1.8 mm 4 mps 701 mmHg 89%
    18:00 +10°C° 1.2 mm 4 mps 702 mmHg 88%
    19:00 +8°C° 1.2 mm 4 mps 703 mmHg 87%
    20:00 +8°C° 1.2 mm 4 mps 704 mmHg 86%
    21:00 +8°C° 0.8 mm 3 mps 704 mmHg 83%
    22:00 +8°C° 0.8 mm 3 mps 704 mmHg 80%
    23:00 +7°C° 0.8 mm 3 mps 705 mmHg 77%

    29 October, Monday

    Time Temperature Precipitation Wind Pressure Humidity
    00:00 +7°C° 0.3 mm 3 mps 705 mmHg 75%
    01:00 +7°C° 0.3 mm 2 mps 706 mmHg 73%
    02:00 +7°C° 0.3 mm 2 mps 706 mmHg 71%
    03:00 +7°C° 0.1 mm 2 mps 707 mmHg 72%
    04:00 +6°C° 0.1 mm 2 mps 708 mmHg 73%
    05:00 +6°C° 0.1 mm 2 mps 708 mmHg 74%
    06:00 +6°C° 0.1 mm 2 mps 709 mmHg 74%
    07:00 +5°C° 0.1 mm 3 mps 709 mmHg 75%
    08:00 +5°C° 0.1 mm 3 mps 710 mmHg 75%
    09:00 +7°C° 0 mm 3 mps 710 mmHg 71%
    10:00 +8°C° 0 mm 2 mps 710 mmHg 66%
    11:00 +9°C° 0 mm 2 mps 709 mmHg 62%
    12:00 +9°C° 0 mm 2 mps 709 mmHg 57%
    13:00 +9°C° 0 mm 2 mps 709 mmHg 53%
    14:00 +10°C° 0 mm 2 mps 709 mmHg 48%
    15:00 +9°C° 0 mm 3 mps 708 mmHg 51%
    16:00 +7°C° 0 mm 3 mps 708 mmHg 54%
    17:00 +5°C° 0 mm 3 mps 708 mmHg 56%
    18:00 +5°C° 0 mm 3 mps 708 mmHg 55%
    19:00 +5°C° 0 mm 3 mps 709 mmHg 54%
    20:00 +5°C° 0 mm 3 mps 709 mmHg 53%
    21:00 +5°C° 0 mm 3 mps 709 mmHg 52%
    22:00 +5°C° 0 mm 3 mps 708 mmHg 52%
    23:00 +5°C° 0 mm 3 mps 708 mmHg 52%
    Show more